Time,TemperatureF,DewpointF,PressureIn,WindDirection,WindDirectionDegrees,WindSpeedMPH,WindSpeedGustMPH,Humidity,HourlyPrecipIn,Conditions,Clouds,dailyrainin,SoftwareType,DateUTC
2013-02-05 00:14:00,9.1,2.8,29.77,SSW,202,0.0,-999.0,75,-99.99,,,0.00,Acu-Link.com,2013-02-05 05:14:00,
2013-02-05 00:32:00,9.0,3.0,29.77,SSW,202,0.0,-999.0,76,-99.99,,,0.00,Acu-Link.com,2013-02-05 05:32:00,
2013-02-05 11:11:00,21.2,6.8,29.85,SSW,202,0.0,-999.0,53,-99.99,,,0.00,Acu-Link.com,2013-02-05 16:11:00,
2013-02-05 11:27:00,22.8,7.4,29.84,SSW,202,3.2,-999.0,51,-99.99,,,0.00,Acu-Link.com,2013-02-05 16:27:00,
2013-02-05 11:48:00,22.8,7.4,29.83,SSW,202,3.7,-999.0,51,-99.99,,,0.00,Acu-Link.com,2013-02-05 16:48:00,
2013-02-05 12:05:00,24.4,6.1,29.83,SSW,202,2.7,-999.0,45,-99.99,,,0.00,Acu-Link.com,2013-02-05 17:05:00,
2013-02-05 12:20:00,25.7,7.3,29.82,ENE,67,3.2,-999.0,45,-99.99,,,0.00,Acu-Link.com,2013-02-05 17:20:00,
2013-02-05 12:35:00,26.4,7.0,29.81,ENE,67,1.7,-999.0,43,-99.99,,,0.00,Acu-Link.com,2013-02-05 17:35:00,
2013-02-05 12:50:00,25.7,7.3,29.81,SSW,202,2.2,-999.0,45,-99.99,,,0.00,Acu-Link.com,2013-02-05 17:50:00,
2013-02-05 13:05:00,25.9,7.5,29.80,SSW,202,1.7,-999.0,45,-99.99,,,0.00,Acu-Link.com,2013-02-05 18:05:00,
2013-02-05 13:21:00,25.5,8.1,29.80,SSW,202,0.0,-999.0,47,-99.99,,,0.00,Acu-Link.com,2013-02-05 18:21:00,
2013-02-05 13:36:00,25.9,8.0,29.79,SSW,202,1.7,-999.0,46,-99.99,,,0.00,Acu-Link.com,2013-02-05 18:36:00,
2013-02-05 13:53:00,25.9,7.5,29.79,SSW,202,2.2,-999.0,45,-99.99,,,0.00,Acu-Link.com,2013-02-05 18:53:00,
2013-02-05 14:08:00,26.1,7.7,29.79,SSW,202,2.7,-999.0,45,-99.99,,,0.00,Acu-Link.com,2013-02-05 19:08:00,
2013-02-05 14:23:00,25.5,9.0,29.78,SSW,202,1.7,-999.0,49,-99.99,,,0.00,Acu-Link.com,2013-02-05 19:23:00,
2013-02-05 14:38:00,25.2,7.8,29.78,SSW,202,1.7,-999.0,47,-99.99,,,0.00,Acu-Link.com,2013-02-05 19:38:00,
2013-02-05 14:54:00,25.0,7.6,29.78,West,270,1.1,-999.0,47,-99.99,,,0.00,Acu-Link.com,2013-02-05 19:54:00,
2013-02-05 15:09:00,25.0,9.0,29.78,West,270,0.0,-999.0,50,-99.99,,,0.00,Acu-Link.com,2013-02-05 20:09:00,
2013-02-05 15:24:00,24.6,8.2,29.78,West,270,1.7,-999.0,49,-99.99,,,0.00,Acu-Link.com,2013-02-05 20:24:00,
2013-02-05 15:39:00,24.6,8.6,29.79,West,270,1.7,-999.0,50,-99.99,,,0.00,Acu-Link.com,2013-02-05 20:39:00,
2013-02-05 15:59:00,24.6,8.6,29.78,West,270,0.0,-999.0,50,-99.99,,,0.00,Acu-Link.com,2013-02-05 20:59:00,
2013-02-05 16:23:00,24.6,9.1,29.78,West,270,0.0,-999.0,51,-99.99,,,0.00,Acu-Link.com,2013-02-05 21:23:00,